User: anonymous   Login
Location: Unspecified
(0.0000°N, 0.0000°E)
Time: 13:21:22
(UTC+00:00)
Language:

NOSS 2-2 (E) - Orbit

View from above orbital plane
View from above orbital plane
View from above satellite
View from above satellite

Ground track
Ground track

The orbit data is extracted from the following two-line orbital elements,

1 21809U 91076E   14319.23517509 0.00000250  00000-0  11868-3 0    00
2 21809  63.3680  15.5775 0665990  13.0171 346.9829 13.40975953    03
Epoch (UTC): 15 November 2014 05:38:39
Eccentricity: 0.0665990
inclination: 63.3680°
perigee height: 607 km
apogee height: 1604 km
right ascension of ascending node: 15.5775°
argument of perigee: 13.0171°
revolutions per day: 13.40975953
mean anomaly at epoch: 346.9829°
orbit number at epoch: 0

The dashed part of the orbit path shows where the satellite is in the earth's shadow,  

DLR